Regional Weather Roundup
Issued by NWS

Home | Current Version | Previous Version | Text Only | Print | Product List | Glossary Off
Versions: 1 2 3 4 5 6 7 8 9 10 11 12 13 14 15 16 17 18 19 20 21 22 23 24 25 26 27 28 29 30 31 32 33 34 35 36 37 38 39 40 41 42 43 44 45 46 47 48 49 50

000
ASUS43 KOAX 041310
RWRNE

WEATHER ROUNDUP FOR NEBRASKA
NATIONAL WEATHER SERVICE OMAHA NE
800 AM CDT SAT JUL 04 2015

NOTES: SATELLITE DATA IS BEING USED TO AUGMENT CLOUD COVER ABOVE
       12000 FEET.
       "FAIR" INDICATES FEW OR NO CLOUDS BELOW 12,000 FEET WITH NO
       SIGNIFICANT WEATHER AND/OR OBSTRUCTIONS TO VISIBILITY.

  * THESE STATIONS DO NOT REPORT WEATHER SUCH AS RAIN...SNOW OR FOG.

NEZ001>004-019>022-054>056-041400-
NEBRASKA PANHANDLE

CITY           SKY/WX    TMP DP  RH WIND       PRES   REMARKS
SCOTTSBLUFF    MOSUNNY   67  61  81 E10       29.94S
ALLIANCE       SUNNY     66  60  81 S10       29.95S
CHADRON        SUNNY     70  60  70 SW3       29.91R
KIMBALL          N/A    N/A N/A N/A MISG        N/A
SIDNEY         PTSUNNY   66  61  84 S14       29.97F
$$

NEZ057>060-069>072-079>082-041400-
SOUTHWEST NEBRASKA

CITY           SKY/WX    TMP DP  RH WIND       PRES   REMARKS
NORTH PLATTE   MOSUNNY   64  60  87 E8        29.97F
IMPERIAL       SUNNY     67  59  75 SE8       29.97F
LEXINGTON      PTSUNNY   65  62  90 SE9       29.99F
MCCOOK         SUNNY     66  60  81 E7        29.98F
OGALLALA       MOSUNNY   67  60  80 SE6       29.96F
$$

NEZ005>010-023>029-035>040-094-041400-
NORTH CENTRAL NEBRASKA

CITY           SKY/WX    TMP DP  RH WIND       PRES   REMARKS
VALENTINE      MOSUNNY   66  60  81 S10       29.94S
AINSWORTH      PTSUNNY   65  62  90 S10       29.96S
BROKEN BOW     PTSUNNY   65  61  87 SE3       29.99S FOG
O`NEILL        SUNNY     66  64  94 S7        29.97S FOG
ORD            MOSUNNY   65  62  90 S6        29.97F
THEDFORD       MOSUNNY   65  61  88 S7        29.98S
$$

NEZ041-046>049-061>064-073>077-083>087-041400-
SOUTH CENTRAL NEBRASKA

CITY           SKY/WX    TMP DP  RH WIND       PRES   REMARKS
GRAND ISLAND   SUNNY     67  61  81 S8        30.00F
AURORA         SUNNY     63  63  97 S3        30.01S FOG
HASTINGS       SUNNY     66  60  81 S7        30.01S
HEBRON         SUNNY     64  59  83 CALM      30.01S
HOLDREGE       MOSUNNY   64  61  92 S5        30.00F FOG
KEARNEY *      SUNNY     64  61  88 S8        30.00F
YORK           SUNNY     64  61  88 S6        30.01F
$$

NEZ011>018-030>034-042>045-041400-
NORTHEAST NEBRASKA

CITY           SKY/WX    TMP DP  RH WIND       PRES   REMARKS
NORFOLK        SUNNY     63  61  93 CALM      29.99S FOG
ALBION         SUNNY     63  59  89 CALM      29.99F FOG
BLAIR          SUNNY     62  58  87 CALM      30.00F FOG
COLUMBUS *     SUNNY     63  57  82 CALM      29.98F
FREMONT        MOSUNNY   65  62  87 CALM      30.01S FOG
TEKAMAH        SUNNY     61  59  93 CALM      30.00S FOG
WAYNE          SUNNY     63  61  94 CALM      29.99F FOG
$$

NEZ050>053-065>068-078-088>093-041400-
SOUTHEAST NEBRASKA

CITY           SKY/WX    TMP DP  RH WIND       PRES   REMARKS
LINCOLN        SUNNY     65  60  84 CALM      30.02S HAZE
OMAHA EPPLEY   SUNNY     62  59  90 CALM      30.01S
BEATRICE       SUNNY     63  59  89 CALM      30.02R
FALLS CITY     SUNNY     63  61  93 SE3       30.01R
NEBRASKA CITY  SUNNY     63  61  94 CALM      30.01S
PLATTSMOUTH    SUNNY     64  59  85 CALM      30.01S
$$

NEZ044-045-051>053-067-041400-
OMAHA AREA

CITY           SKY/WX    TMP DP  RH WIND       PRES   REMARKS
OMAHA EPPLEY   SUNNY     62  59  90 CALM      30.01S
BLAIR          SUNNY     62  58  87 CALM      30.00F FOG
FREMONT        MOSUNNY   65  62  87 CALM      30.01S FOG
MILLARD        SUNNY     62  59  91 CALM      30.01S FOG
OFFUTT AFB     SUNNY     60  60 100 NW1       30.00S
PLATTSMOUTH    SUNNY     64  59  85 CALM      30.01S
WAHOO          FAIR      64  61  90 CALM      30.01S FOG
$$



USA.gov is the U.S. government's official web portal to all federal, state and local government web resources and services.